Tracking 19199 objects as of 25-Jun-2018
HD Live streaming from Space Station
objects crossing your sky now

EUTELSAT 2-F4

Track EUTELSAT 2-F4 now!
EUTELSAT 2-F4 is classified as:


NORAD ID: 22028
Int'l Code: 1992-041B
Perigee: 36,103.6 km
Apogee: 36,160.0 km
Inclination: 13.2 °
Period: 1,453.4 minutes
Semi major axis: 42502 km
RCS: 3.1622 m2 (large)
Launch date: July 9, 1992
Source: European Telecommunications Satellite Organization (EUTE)
Launch site: FRENCH GUIANA (FRGUI)
aabbcc
Your satellite tracking list
Your tracking list is empty




NASA's NSSDC Master Catalog

Two Line Element Set (TLE):
1 22028U 92041B   18175.73228264 -.00000020  00000-0  00000+0 0  9998
2 22028  13.1908  28.1115 0006632 219.9534 321.9184  0.99077840 87351
Source of the keplerian elements: AFSPC